Wind_Speed
28 27 26 25 26 25 21 20 19 20 23 21 20 25 28 28 26 25 24 23 23 23 23 24 24 22 20 19 18 16 15 13 13 15 15 16 17 19 20 20 20 20
28 28 31 31 30 28 23 21 20 21 22 21 22 28 28 26 26 25 25 24 24 24 25 25 23 19 17 16 15 15 15 14 13 13 13 14 15 16 18 19 20 20
30 29 33 34 32 29 23 20 20 20 21 22 25 29 27 26 27 25 25 25 25 26 25 24 22 19 16 14 14 15 14 13 13 12 12 13 14 15 16 17 18 18
30 28 30 33 35 33 25 20 20 20 21 23 27 29 27 26 27 26 26 26 25 25 24 22 20 18 16 14 14 15 14 12 12 12 12 14 14 15 15 15 16 17
30 29 27 27 31 34 27 21 21 22 23 27 29 29 27 27 27 27 27 26 26 25 23 21 19 18 16 15 15 16 14 13 13 13 13 14 14 14 14 14 15 15
31 30 29 26 26 30 27 22 22 24 26 29 30 29 28 28 28 28 28 27 26 25 23 22 20 18 17 15 16 16 15 14 14 14 14 14 14 14 14 14 14 13
31 31 30 27 25 27 26 23 26 30 31 30 30 29 29 29 29 29 28 28 26 25 23 22 20 19 17 16 17 16 15 15 14 14 14 14 14 14 14 14 14 13
31 30 29 27 25 25 24 25 31 34 33 31 30 30 29 29 29 29 29 28 27 25 24 22 20 19 17 17 17 16 15 15 15 15 14 15 15 15 16 15 14 14
31 29 28 27 26 25 24 28 34 35 32 32 31 30 30 29 29 30 30 29 27 26 24 22 20 19 18 17 16 15 15 15 15 15 14 15 16 16 16 16 15 14
31 29 29 29 27 25 24 27 34 35 32 32 31 30 31 30 30 30 30 29 28 26 24 22 21 19 18 16 15 14 14 15 14 14 14 15 16 16 16 16 15 15
32 30 30 29 27 25 24 26 32 35 33 32 31 31 31 30 30 31 31 30 28 26 24 22 21 20 18 16 14 13 14 14 13 13 13 14 15 15 15 16 15 15
33 30 30 29 27 26 24 24 29 35 34 32 32 31 31 32 32 32 31 30 28 26 24 22 21 19 17 15 14 14 14 14 13 13 14 14 15 15 15 15 15 14
32 31 30 28 26 26 24 23 27 34 34 32 33 32 32 33 33 32 32 30 29 27 24 21 20 18 16 15 15 15 15 15 14 14 14 15 15 15 14 14 14 14
32 32 30 27 25 25 25 23 25 32 35 33 34 33 34 34 33 33 32 31 29 27 24 21 20 18 17 17 16 16 16 16 15 14 15 15 14 14 14 13 13 13
31 31 28 27 27 28 27 24 25 32 35 34 34 34 34 34 33 33 33 32 29 27 24 22 21 20 19 18 17 17 17 16 15 15 14 14 14 14 13 13 13 13
29 27 28 32 33 32 29 27 28 34 35 34 34 35 35 35 34 33 33 31 29 27 25 23 22 21 18 17 17 17 17 17 16 15 14 14 15 15 15 15 14 13
27 28 32 36 35 31 30 32 34 35 35 34 34 34 35 34 34 33 32 30 28 27 25 24 23 21 18 17 17 17 17 17 16 15 15 15 16 16 16 16 15 14
30 31 33 35 34 33 33 34 34 34 34 32 32 34 35 34 34 33 31 30 28 26 25 24 23 20 18 18 18 17 17 16 16 16 16 17 17 17 17 17 17 17
33 31 32 35 36 34 34 34 32 29 27 26 28 34 35 34 34 33 31 30 28 27 26 24 22 20 18 18 18 18 17 16 17 17 17 18 18 18 18 18 18 19
32 30 32 35 36 34 34 36 34 27 23 24 29 35 36 35 35 34 32 31 29 27 26 24 22 20 19 19 19 18 18 18 17 17 17 17 17 17 18 19 20 20
32 31 31 34 37 38 37 37 35 30 27 29 33 36 37 37 37 36 33 31 29 27 27 25 22 20 19 19 20 19 18 18 18 17 17 17 17 17 18 19 21 20
34 33 33 36 38 38 37 36 35 34 34 34 36 37 37 37 37 36 34 31 28 27 26 25 22 20 20 20 20 20 20 20 19 18 17 18 18 18 19 19 20 20
35 35 36 38 37 36 37 35 34 36 36 36 36 36 36 35 35 35 33 30 28 27 26 25 23 21 21 21 20 21 21 21 20 18 18 19 18 18 18 19 19 19
38 38 37 38 37 36 35 31 32 36 37 37 38 36 34 33 34 35 34 30 28 26 25 25 24 23 22 22 22 22 23 22 21 19 19 20 18 18 19 18 18 19
37 37 37 37 37 37 33 28 32 39 39 37 37 35 33 33 34 35 36 33 30 27 25 25 24 24 23 23 23 23 23 23 22 20 19 20 18 18 20 20 19 19
36 36 38 39 39 39 35 31 34 39 39 38 37 35 31 32 34 35 36 34 31 28 27 26 25 24 24 23 23 24 24 24 24 21 20 20 19 19 21 22 21 20
Wind_Direction
196 196 195 196 197 195 194 193 193 194 196 198 201 207 211 211 211 210 209 210 211 210 211 216 220 216 210 209 213 220 224 228 234 235 236 238 238 237 236 235 235 236
194 197 200 201 200 198 197 196 195 196 198 201 208 212 213 212 211 210 208 208 207 208 212 216 218 219 216 212 215 221 224 225 229 231 234 239 240 238 237 237 239 240
194 197 200 202 202 200 197 197 197 199 201 204 210 213 214 213 211 210 207 205 203 205 210 212 213 218 219 218 224 226 223 224 228 228 228 235 239 238 236 236 236 237
192 195 198 202 204 203 197 195 198 200 202 206 211 213 214 213 211 209 207 205 202 204 208 210 210 213 216 219 228 226 221 227 232 226 222 228 234 234 234 232 230 230
191 193 196 198 202 203 199 195 198 200 203 209 212 213 213 212 209 208 207 205 204 205 208 212 213 215 215 219 226 225 223 228 229 223 221 225 229 228 227 225 221 219
191 194 196 195 197 200 198 195 197 202 207 211 211 211 211 211 209 208 207 205 205 206 208 212 216 218 218 219 223 226 229 230 226 220 218 222 224 222 219 214 210 208
190 192 194 194 194 197 196 196 202 207 211 211 210 210 210 210 209 208 208 206 206 208 210 214 218 220 219 217 219 225 231 231 224 218 216 218 217 214 209 205 202 202
189 190 192 192 192 194 194 199 206 209 211 210 209 209 210 209 209 208 208 207 207 209 212 216 220 222 221 218 218 225 228 225 220 216 214 214 211 208 205 202 200 202
188 188 190 191 191 193 193 200 205 207 209 210 208 208 209 209 209 209 208 207 208 211 213 217 222 223 221 220 222 227 226 221 218 216 214 213 210 207 205 202 199 200
187 186 188 190 192 192 192 197 203 205 207 208 208 208 207 208 209 209 207 206 207 210 214 219 223 223 221 221 225 228 225 221 218 216 215 215 214 211 208 205 201 200
187 185 187 189 190 191 190 193 200 203 205 206 206 206 206 206 207 207 206 206 207 210 214 219 223 222 220 220 224 224 221 221 220 218 216 216 217 216 212 209 206 204
187 186 187 187 188 190 190 190 196 201 203 204 205 205 205 205 205 205 205 205 207 210 213 218 222 222 220 220 221 217 213 214 216 216 214 214 214 214 213 212 210 209
188 189 187 184 186 189 189 187 193 199 201 203 205 205 204 204 204 204 205 205 207 209 211 216 220 219 216 218 218 212 206 207 209 210 210 210 209 209 211 212 213 214
190 190 185 182 183 186 188 187 190 197 200 203 205 204 205 204 203 204 204 203 205 207 210 214 216 213 212 214 214 210 205 205 206 207 207 207 207 208 210 212 214 216
188 187 183 180 182 186 188 186 189 195 199 203 205 204 205 205 203 203 202 201 203 206 209 211 211 209 210 212 211 207 205 206 207 207 208 207 206 207 208 210 212 213
183 181 181 181 183 186 186 186 190 195 198 202 204 204 205 204 202 202 201 201 202 205 207 208 207 208 210 211 211 208 206 206 207 207 209 209 207 206 206 207 209 209
177 178 181 181 182 183 183 187 191 194 197 200 201 203 204 203 202 201 200 201 203 205 206 206 206 208 208 208 209 209 207 206 206 207 207 207 207 207 205 205 204 203
176 179 179 179 180 181 183 187 190 191 194 196 197 201 201 200 201 200 199 201 203 205 206 205 206 207 206 206 206 206 206 205 206 207 206 204 205 205 205 205 202 199
177 178 177 178 180 181 182 184 185 186 189 190 194 198 198 197 198 198 198 200 202 204 205 205 207 206 205 205 205 204 203 203 206 207 206 204 204 204 205 206 203 201
178 178 177 178 178 178 180 184 184 184 185 187 193 195 194 195 196 195 196 199 201 203 203 204 206 205 204 204 204 204 202 202 205 206 205 206 207 206 207 208 206 205
177 178 177 176 177 179 181 183 184 185 188 191 193 193 192 194 195 194 195 197 200 202 202 203 205 203 202 203 203 202 200 201 205 205 204 207 209 209 210 209 209 209
178 178 175 173 175 179 181 181 183 186 189 190 190 190 192 193 193 193 194 195 198 201 201 202 204 201 201 202 201 200 198 199 203 204 205 208 209 209 210 210 211 211
178 177 174 173 174 178 180 181 183 185 186 186 186 188 190 190 190 193 194 193 195 197 198 201 202 201 200 200 199 197 195 198 201 201 203 207 208 209 210 210 212 213
179 178 175 173 175 179 181 180 181 183 186 186 186 187 188 189 190 191 193 193 191 191 194 200 202 200 198 198 198 196 196 197 198 197 199 204 206 208 209 211 214 217
179 179 177 175 177 180 181 180 180 183 186 187 187 187 187 190 192 191 192 194 192 188 193 201 202 199 197 197 197 195 196 198 197 194 197 200 202 205 208 211 216 222
179 179 178 177 179 182 182 181 180 182 185 186 188 188 188 189 191 191 193 196 194 191 196 202 203 199 196 197 197 196 197 198 197 195 196 198 200 204 208 212 217 223
Height
768 770 774 778 781 785 787 790 793 795 797 800 801 803 805 808 810 812 814 815 817 819 821 822 822 825 828 828 829 831 832 833 835 836 837 838 839 839 840 841 842 843
764 767 771 775 778 782 785 787 790 792 795 797 799 801 803 806 809 810 812 814 816 818 820 821 822 824 826 827 828 829 830 831 833 834 835 836 837 838 839 839 841 842
761 765 769 772 775 779 782 785 788 790 793 795 797 799 802 804 807 808 810 812 815 817 818 820 822 823 825 826 826 827 828 830 831 832 833 834 836 837 837 838 839 840
758 762 766 770 773 776 780 783 786 788 790 792 795 797 800 802 805 807 809 811 813 815 817 818 820 822 824 825 825 826 828 829 830 831 832 833 834 835 836 837 838 839
755 760 764 767 770 773 777 780 783 785 787 790 792 795 798 801 803 805 807 809 811 813 815 817 818 820 822 823 824 825 826 828 829 830 831 832 833 834 835 836 837 838
753 758 761 765 768 771 774 777 780 782 784 787 790 793 796 798 801 803 805 807 809 811 813 815 817 818 820 822 823 824 825 826 827 828 830 830 831 832 834 835 836 837
750 755 759 763 765 768 772 775 777 779 782 785 788 791 793 796 798 801 803 805 807 809 811 813 815 816 818 820 821 822 823 825 826 827 828 829 830 831 833 834 835 836
748 752 756 760 762 765 769 772 774 777 780 783 786 789 791 794 796 799 801 803 805 808 809 811 813 814 816 818 820 821 822 823 824 825 827 828 829 830 832 833 834 835
745 749 753 756 759 762 765 768 771 774 778 781 784 787 789 792 794 797 799 801 804 806 807 809 811 812 814 816 818 819 820 821 823 824 825 826 828 829 830 832 833 834
742 745 749 753 756 759 762 766 769 772 776 779 782 785 787 790 792 795 797 800 802 804 805 807 809 810 813 815 816 818 819 820 822 823 824 826 827 828 829 831 832 833
739 742 745 749 752 756 760 763 766 770 773 777 780 783 786 788 790 793 796 798 800 802 804 805 807 809 811 813 815 816 818 819 821 822 824 825 826 827 829 830 832 833
735 738 741 745 749 753 757 761 764 767 771 774 778 781 783 786 788 790 793 796 798 800 802 804 805 807 809 811 813 815 817 819 820 822 823 824 825 827 829 830 831 832
731 734 737 741 746 751 755 758 761 765 769 772 775 778 781 783 786 788 791 793 796 798 800 802 803 805 808 810 812 813 816 818 819 821 822 823 825 826 828 829 830 831
727 731 735 739 744 748 752 756 759 762 766 770 773 776 778 780 783 786 788 791 794 796 798 800 802 804 806 808 810 812 814 816 818 819 821 822 823 825 827 828 830 830
725 729 733 736 740 745 749 753 757 760 763 767 770 773 776 778 781 783 786 788 791 794 796 798 799 801 804 806 808 810 812 814 816 818 819 821 822 824 826 827 829 830
723 726 729 733 737 742 746 750 754 757 761 764 768 771 773 776 778 781 783 786 789 791 793 795 797 799 802 804 806 808 810 812 814 816 818 819 821 823 825 826 828 829
719 723 726 730 734 739 743 747 751 755 758 762 765 768 770 773 776 778 781 784 786 788 791 792 795 797 800 802 804 806 808 810 812 814 816 817 819 821 823 825 827 828
716 721 724 728 732 736 740 744 749 752 756 760 762 765 767 771 773 775 778 781 784 786 788 790 792 795 798 800 802 804 806 808 810 811 813 815 817 819 822 824 825 827
713 718 721 724 728 733 738 742 746 750 754 757 760 762 765 768 770 773 776 779 781 783 786 788 790 793 796 798 800 802 804 806 808 809 811 813 815 817 820 822 823 825
711 714 718 722 725 730 735 738 742 747 751 754 756 759 762 765 767 770 773 776 778 781 783 785 788 790 793 795 798 800 802 804 806 808 809 811 813 815 818 820 822 823
707 711 715 719 722 727 731 735 739 743 747 750 753 756 759 761 764 766 769 772 775 777 780 783 785 788 790 793 795 798 800 802 804 806 808 810 812 814 816 818 820 822
703 708 711 715 719 724 728 732 735 739 743 747 750 753 756 758 761 763 766 769 772 775 778 780 783 785 788 791 793 796 798 801 803 805 807 808 810 812 814 816 818 820
700 704 708 712 716 721 725 728 732 736 741 744 747 750 753 755 758 761 764 767 769 772 775 778 780 783 786 788 791 794 796 799 801 803 805 807 808 811 813 815 817 819
698 702 706 709 713 718 722 726 730 734 738 741 744 747 750 753 755 758 761 764 766 769 772 775 777 780 783 786 788 791 794 796 799 801 803 805 807 809 811 813 815 817
696 700 703 706 710 715 720 723 727 731 735 739 742 744 747 750 753 755 758 761 764 766 769 772 774 777 780 783 786 789 791 794 796 799 801 803 805 807 809 811 813 815
693 697 700 704 709 714 718 722 725 729 733 736 739 742 745 747 750 753 755 758 761 764 767 769 772 775 779 781 784 787 789 792 794 796 798 801 803 805 807 809 811 813